Location: Unspecified
(0.0000°N, 0.0000°E)
Time: 05:19:59
(UTC+00:00)

X-37B - Pass Details

Date: 02 August 2020
Orbit: 379 x 395 km, 45.0° (Epoch: 12 August)

Event Time Altitude Azimuth Distance (km) Brightness Sun altitude
Rises 18:28:53 0° 203° (SSW) 2,238 4.5 -5.4°
Reaches altitude 10° 18:31:13 10° 187° (S) 1,386 3.3 -6.0°
Maximum altitude 18:33:44 22° 133° (SE) 871 1.8 -6.6°
Drops below altitude 10° 18:36:16 10° 78° (ENE) 1,385 2.8 -7.2°
Enters shadow 18:37:31 - 68° (ENE) 1,829 3.5 -7.5°
